Location: Newark
(40.3500°N, 15.2333°E)
Time: 00:27:01
(UTC+00:00)

Vanguard 1 - Pass Details

Date: 24 January 2020
Orbit: 650 x 3833 km, 34.2° (Epoch: 24 February)

Event Time Altitude Azimuth Distance (km) Brightness Sun altitude
Rises 21:51:16 0° 266° (W) 3,840 - -62.8°
Reaches altitude 10° 21:54:17 10° 249° (WSW) 3,226 - -63.2°
Maximum altitude 22:00:11 21° 203° (SSW) 3,113 - -63.9°
Drops below altitude 10° 22:08:50 10° 161° (SSE) 4,923 - -65.0°
Sets 22:15:08 0° 148° (SSE) 6,567 - -65.6°
